Flag for Germany Weather past 2 weeks in Ettlingen, Baden-Württemberg, Germany

Now
41 °F

Broken clouds.


Feels Like: 38 °F
Forecast: 31 / 39 °F
Wind: 5 mph from Southwest

Location: Karlsruhe - Baden Wurttemberg

Current Time: Dec 26, 2014 at 4:11:21 PM

Latest Report: Dec 26, 2014 at 3:20 PM


Visibility: N/A

Pressure: 30.39 "Hg

Humidity: 76%

Dew point: 34 °F

Location of EttlingenLocation

Historic Weather in Ettlingen — Graph

°F

Ettlingen temperature yesterday

Maximum temperature yesterday: 45 °F (at 12:50 PM)
Minimum temperature yesterday: 37 °F (at 8:20 AM)
Average temperature yesterday: 41 °F

Past Weeks' High & Low Weather Summary

 TemperatureHumidityPressure
High54 °F (Dec 18, 5:50 PM)100% (Dec 14, 3:20 PM)30.54 "Hg (Dec 14, 3:20 PM)
Low30 °F (Dec 23, 10:20 PM)50% (Dec 15, 2:50 PM)29.71 "Hg (Dec 12, 4:20 PM)
Average44 °F78%30.12 "Hg
* Reported Dec 11 2:20 PM — Dec 26 2:50 PM, Ettlingen, Weather by CustomWeather, © 2014

Note: Actual official high and low records may vary slightly from our data, if they occured in-between our weather recording intervals... More about our weather records

Advertising

Ettlingen weather history for previous 24 hours

 ConditionsComfort  
Time TempWeatherWind HumidityBarometerVisibility
2:50 PM
Dec 26
41 °FPartly sunny.5 mph70%30.39 "HgN/A
2:20 PM41 °FBroken clouds.3 mph76%30.39 "HgN/A
1:50 PM39 °FScattered clouds.5 mph81%30.39 "HgN/A
1:20 PM39 °FBroken clouds.3 mph81%30.39 "HgN/A
12:51 PM39 °FDrizzle. Broken clouds.5 mph81%30.42 "HgN/A
12:20 PM39 °FBroken clouds.7 mph81%30.42 "HgN/A
11:50 AM39 °FBroken clouds.7 mph81%30.42 "HgN/A
11:20 AM39 °FScattered clouds.5 mph81%30.42 "HgN/A
10:50 AM37 °FScattered clouds.5 mph93%30.45 "HgN/A
10:20 AM37 °FScattered clouds.5 mph93%30.42 "Hg6 mi
9:50 AM36 °FPassing clouds.3 mph93%30.45 "HgN/A
9:20 AM36 °FPassing clouds.5 mph93%30.42 "Hg6 mi
8:50 AM36 °FScattered clouds.5 mph93%30.42 "Hg6 mi
8:20 AM37 °FScattered clouds.6 mph87%30.42 "HgN/A
7:50 AM39 °FLight rain. Passing clouds.5 mph87%30.42 "HgN/A
7:20 AM39 °FPassing clouds.5 mph81%30.42 "HgN/A
6:50 AM39 °FPassing clouds.5 mph81%30.42 "HgN/A
6:20 AM39 °FPassing clouds.5 mph81%30.39 "HgN/A
5:50 AM39 °FLight rain. Passing clouds.6 mph81%30.39 "HgN/A
5:20 AM39 °FLight rain. Partly cloudy.5 mph87%30.39 "HgN/A
4:50 AM39 °FPartly cloudy.5 mph81%30.39 "HgN/A
10:20 PM
Dec 25
41 °FPartly cloudy.7 mph76%30.39 "HgN/A
9:50 PM41 °FPassing clouds.8 mph76%30.39 "HgN/A
9:20 PM43 °FClear.8 mph71%30.39 "Hg10 mi
8:50 PM41 °FClear.7 mph76%30.39 "Hg10 mi
8:20 PM41 °FClear.8 mph76%30.39 "Hg10 mi
7:50 PM41 °FClear.7 mph76%30.36 "Hg10 mi
7:20 PM41 °FClear.9 mph76%30.36 "Hg10 mi
6:50 PM41 °FClear.7 mph76%30.36 "Hg10 mi
6:20 PM41 °FClear.7 mph76%30.36 "Hg10 mi
5:50 PM41 °FPassing clouds.7 mph76%30.36 "HgN/A
5:20 PM41 °FPartly cloudy.5 mph76%30.36 "HgN/A
4:50 PM41 °FPassing clouds.6 mph76%30.36 "HgN/A
4:20 PM43 °FBroken clouds.7 mph66%30.33 "HgN/A
Weather by CustomWeather, © 2014

See weather overviewHow to use our weather pages